SP9SVH-2 Weather Reports


Display with metric or nautical units.
time (UTC)temp
F
wind
direction
speed
MPH
gust
MPH
rain 1hr
in
rain 24hr
in
rain mn
in
humidity
%
barometer
mb
20260506211316 62 196 0.0 1.0 0.00 0.00 0.00 5 1007.4
20260506205520 62 196 0.0 0.0 0.00 0.00 0.00 5 1007.2
20260506203658 63 196 0.0 1.0 0.00 0.00 0.00 5 1007.0
20260506201718 61 203 0.0 0.0 0.00 0.00 0.00 6 1007.1
20260506200119 61 204 0.0 0.0 0.00 0.00 0.00 6 1006.9
20260506192417 63 203 0.0 0.0 0.00 0.00 0.00 5 1007.0
20260506190533 64 201 0.0 0.0 0.00 0.00 0.00 5 1006.9
20260506175620 67 224 0.0 0.0 0.00 0.00 0.00 5 1006.3
20260506173703 67 225 0.0 0.0 0.00 0.00 0.00 5 1006.2
20260506172008 69 198 0.0 2.0 0.00 0.00 0.00 5 1006.2
20260506170346 69 275 3.0 3.0 0.00 0.00 0.00 5 1006.4
20260506164707 69 186 0.0 0.0 0.00 0.00 0.00 6 1006.4
20260506163022 71 186 0.0 1.0 0.00 0.00 0.00 6 1006.0
20260506161243 71 186 0.0 0.0 0.00 0.00 0.00 5 1006.0
20260506155624 71 186 0.0 0.0 0.00 0.00 0.00 6 1006.3
20260506153653 70 186 0.0 0.0 0.00 0.00 0.00 5 1006.3
20260506151902 71 186 0.0 0.0 0.00 0.00 0.00 6 1006.5
20260506150013 77 226 0.0 0.0 0.00 0.00 0.00 5 1006.6
20260506144213 76 226 0.0 0.0 0.00 0.00 0.00 4 1006.6
20260506142251 76 226 0.0 1.0 0.00 0.00 0.00 4 1006.7
20260506140550 78 184 1.0 2.0 0.00 0.00 0.00 4 1006.7
20260506134820 79 195 0.0 1.0 0.00 0.00 0.00 3 1006.6
20260506133006 80 245 0.0 1.0 0.00 0.00 0.00 3 1006.4
20260506131007 77 232 1.0 2.0 0.00 0.00 0.00 3 1006.5
20260506125100 77 222 1.0 1.0 0.00 0.00 0.00 4 1006.4
20260506123259 80 256 0.0 3.0 0.00 0.00 0.00 3 1006.7
20260506123223 80 256 0.0 3.0 0.00 0.00 0.00 3 1006.7
20260506121540 78 278 0.0 1.0 0.00 0.00 0.00 4 1006.6
20260506115842 79 239 0.0 2.0 0.00 0.00 0.00 3 1006.6
20260506114220 80 240 3.0 3.0 0.00 0.00 0.00 3 1006.8
20260506112313 80 245 3.0 11.0 0.00 0.00 0.00 3 1006.8
20260506110623 79 213 3.0 8.0 0.00 0.00 0.00 3 1006.7
20260506104903 80 227 3.0 5.0 0.00 0.00 0.00 3 1006.8
20260506103009 79 223 1.0 10.0 0.00 0.00 0.00 3 1006.8
20260506101251 77 196 2.0 9.0 0.00 0.00 0.00 4 1006.8
20260506095341 76 230 2.0 4.0 0.00 0.00 0.00 3 1006.7
20260506093743 76 211 3.0 5.0 0.00 0.00 0.00 3 1006.9
20260506092128 77 222 1.0 4.0 0.00 0.00 0.00 3 1006.9
20260506090141 78 237 2.0 6.0 0.00 0.00 0.00 3 1006.7
20260506084423 76 228 1.0 3.0 0.00 0.00 0.00 4 1006.7
20260506082543 76 200 0.0 1.0 0.00 0.00 0.00 3 1006.5
20260506080825 75 278 0.0 1.0 0.00 0.00 0.00 4 1006.6
20260506073423 75 203 1.0 3.0 0.00 0.00 0.00 3 1006.5
20260506071608 74 235 1.0 4.0 0.00 0.00 0.00 3 1006.3
20260506062010 71 210 1.0 5.0 0.00 0.00 0.00 3 1006.4
20260506060405 69 242 0.0 1.0 0.00 0.00 0.00 4 1006.3
20260506043243 62 161 0.0 1.0 0.00 0.00 0.00 5 1006.0
20260506041408 62 154 0.0 0.0 0.00 0.00 0.00 5 1005.8
20260506035648 62 170 0.0 0.0 0.00 0.00 0.00 5 1006.0
20260506034040 62 159 0.0 1.0 0.00 0.00 0.00 4 1006.0
20260506032148 61 113 0.0 0.0 0.00 0.00 0.00 5 1006.5
20260506030413 61 191 0.0 1.0 0.00 0.00 0.00 5 1006.2
20260506024500 61 202 0.0 4.0 0.00 0.00 0.00 5 1006.2
20260506022753 60 194 0.0 1.0 0.00 0.00 0.00 5 1006.3
20260506020913 59 195 0.0 0.0 0.00 0.00 0.00 5 1006.4
20260506015203 59 195 0.0 0.0 0.00 0.00 0.00 5 1006.4
20260506013320 60 195 0.0 0.0 0.00 0.00 0.00 4 1006.6
20260506011513 60 195 0.0 0.0 0.00 0.00 0.00 4 1006.7
20260506005840 60 194 0.0 1.0 0.00 0.00 0.00 4 1006.8
20260506004036 60 227 0.0 0.0 0.00 0.00 0.00 4 1006.9
20260506002320 59 227 0.0 1.0 0.00 0.00 0.00 5 1007.0
20260505235527 60 228 0.0 0.0 0.00 0.00 0.00 4 1007.0
20260505231705 60 228 0.0 0.0 0.00 0.00 0.00 4 1007.2
20260505225804 61 227 0.0 1.0 0.00 0.00 0.00 4 1007.2
20260505222345 60 228 0.0 0.0 0.00 0.00 0.00 4 1007.3
20260505220405 61 229 0.0 0.0 0.00 0.00 0.00 4 1007.4
20260505214805 61 229 0.0 0.0 0.00 0.00 0.00 4 1007.4
20260505212953 62 229 0.0 0.0 0.00 0.00 0.00 4 1007.6